Regional Weather Roundup
Issued by NWS Upton, NY

Current Version | Previous Version | Graphics & Text | Print | Product List | Glossary Off
Versions: 1 2 3 4 5 6 7 8 9 10 11 12 13 14 15 16 17 18 19 20 21 22 23 24 25 26 27 28 29 30 31 32 33 34 35 36 37 38 39 40 41 42 43 44 45 46 47 48 49 50

503
ASUS41 KOKX 160908
RWROKX

REGIONAL WEATHER ROUNDUP
NATIONAL WEATHER SERVICE NEW YORK NY
400 AM EST MON JAN 16 2017

NOTE: "FAIR" INDICATES FEW OR NO CLOUDS BELOW 12,000 FEET WITH NO
SIGNIFICANT WEATHER AND/OR OBSTRUCTIONS TO VISIBILITY.

NYZ071-072-176-178-NJZ106-104-161000-
NEW YORK CITY METRO AREA

CITY           SKY/WX    TMP DP  RH WIND       PRES   REMARKS
Central Park   CLEAR     31  17  56 VRB5      30.46F WCI  26
Wall St Helipt SUNNY     33  20  58 E9        30.46S WCI  25
Bronx Bot Gard NOT AVBL
LaGuardia APRT CLEAR     32  18  56 NE5       30.45S WCI  27
Kennedy INTL   CLEAR     28  19  69 N3        30.46S
Breezy Point     N/A    N/A N/A N/A N5          N/A
Newark/Liberty CLEAR     25  17  72 N6        30.45F WCI  18
Teterboro      CLEAR     27  19  72 N3        30.45S
$$

NYZ177-179-078>081-161000-
LONG ISLAND NEW YORK

CITY           SKY/WX    TMP DP  RH WIND       PRES   REMARKS
Jones Beach      N/A    N/A N/A N/A NE8         N/A
Matinecock PT  NOT AVBL
Farmingdale    CLEAR     26  19  74 N6        30.44F WCI  19
MacArthur/ISP  CLEAR     22  18  85 CALM      30.44S
Shirley        CLEAR     23  18  81 CALM      30.45S
Westhampton    CLEAR     14  10  84 NW5       30.45F WCI   6
Southampton    NOT AVBL
Bridgehampton  NOT AVBL
East Hampton     N/A     17  15  90 CALM      30.43F
Montauk          N/A     32  22  66 N5        30.44S WCI  27
$$

NYZ052-065-067-161000-
HUDSON VALLEY

CITY           SKY/WX    TMP DP  RH WIND       PRES   REMARKS
White Plains   CLEAR     24  15  68 NW3       30.42S
Newburgh       NOT AVBL
Montgomery     CLEAR     16  13  88 CALM      30.42F
Poughkeepsie   CLEAR     16  13  88 CALM      30.44F
Albany         CLEAR     16  10  77 CALM      30.44S
$$

NJZ001-105-106-008-010-013-015-019>022-104-161000-
NEW JERSEY

CITY           SKY/WX    TMP DP  RH WIND       PRES   REMARKS
Newark/Liberty CLEAR     25  17  72 N6        30.45F WCI  18
Teterboro      CLEAR     27  19  72 N3        30.45S
Caldwell       CLEAR     20  17  88 CALM      30.46S
Somerville     CLEAR     16  12  84 NW3       30.44S
Linden           N/A     27  19  73 CALM      30.46S
Sussex         CLOUDY    14  11  87 CALM      30.42F
Andover          N/A     15  12  88 CALM      30.43S
Trenton        CLEAR     22  19  89 CALM      30.44S
Millville      PTCLDY    24  21  88 CALM      30.44F
Atlantic City  CLEAR     24  18  77 NW3       30.45S
Wrightstown    CLEAR     23  18  80 NW3       30.42F
Toms River     CLEAR     16  14  92 CALM      30.46S
Belmar         CLEAR     23  19  85 W5        30.45F WCI  17
$$

PAZ047>061-062-071-161000-
EASTERN PENNSYLVANIA

CITY           SKY/WX    TMP DP  RH WIND       PRES   REMARKS
Philadelphia   CLEAR     28  19  69 NW3       30.47S
Allentown      CLOUDY    18  14  84 CALM      30.45S
Scranton       CLOUDY    15  11  83 E7        30.40F WCI   5
$$

CTZ002-004>006-009-010-012-RIZ004-006-007-MAZ004-011-015-161000-
SOUTHERN NEW ENGLAND
 IN CT

CITY           SKY/WX    TMP DP  RH WIND       PRES   REMARKS
Bradley INTL   CLEAR     19  15  84 CALM      30.43F
Hartford       CLEAR     18  16  92 CALM      30.44F
Danbury        CLEAR     15  11  83 CALM      30.43F
Wtrbury/Oxford CLEAR     21  12  68 CALM      30.41S
Bridgeport     CLEAR     24  19  81 CALM      30.45S
Meriden        CLEAR     18  13  80 CALM      30.44F
New Haven      CLEAR     23  16  74 CALM      30.44F
Chester          N/A     25  14  63 N3        30.41F
Groton         CLEAR     23  16  74 N5        30.44S WCI  17
Wilimantic     CLEAR     17  13  84 CALM      30.44F

 IN RI

CITY           SKY/WX    TMP DP  RH WIND       PRES   REMARKS
Providence     PTCLDY    20  15  81 CALM      30.44S
Block Island   NOT AVBL
Westerly       CLEAR     19  14  81 CALM      30.44S
 IN MA

CITY           SKY/WX    TMP DP  RH WIND       PRES   REMARKS
Boston         CLEAR     24  12  60 CALM      30.44S
Worcester      CLEAR     22   7  52 SW6       30.36F WCI  14
Westfield      CLEAR     16  13  88 CALM      30.42F
Provincetown   CLEAR     32  19  58 NW7       30.43S WCI  26
Nantucket      CLEAR     23  16  74 CALM      30.43R
$$

ANZ330-335-338-340-345-350-353-355-161000-
COASTAL MARINE OBSERVATIONS


STATION/POSITION TIME  SKY/WX   TEMP    WIND        PRES    VSBY  WAVE
                                AIR SEA DIR/SP/G                  HT/PER
                 (UTC)          (F)     (DEG/KT/KT) (MB)    (MI)  (FT/S)
NY HARB ENTRANCE 0750            36 44   20/  8/ 10 1031.1          1/11
20 S FIRE ISLAND 0850            37 45   30/ 10/ 12 1030.4          2/10
GREAT SOUTH BAY  NOT AVBL
23 SSW MONTAUK P 0750            38 47  330/  4/  8 1031.0          1/11
15 E BARNEGAT LI 0830               44                N/A           2/11
HUDSON CANYON    0750            42 52              1030.2          2/11
KINGS POINT      0842            31 38              1031.0
EXECUTION ROCKS  0845            32      20/  8/ 10   N/A
CENTRAL LI SOUND 0830            32     360/  8/ 10   N/A           1/ 2
EASTERN LI SOUND NOT AVBL
ROBBINS REEF     0842            29     340/  5/  6 1031.3
$$


>>>>>>>>>>>>>>>>>>>>>>>>>>>> KEY <<<<<<<<<<<<<<<<<<<<<<<<<<<
>                                                          <
>     SKY/WX - Sky Condition/Present Weather               <
>     TMP    - Temperature in Fahrenheit                   <
>     DP     - Dew Point in Fahrenheit                     <
>     RH     - Relative Humidity in Percent                <
>     WIND   - Direction (from) and Speed in MPH           <
>     PRES   - Mean Sea Level Pressure (inches of Hg)      <
>     WCI    - Wind Chill Index                            <
>     VSB    - VISIBILITY IN MILES                         <
>     HX     - HEAT INDEX                                  <
>     TC     - TEMPERATURE IN CELSIUS                      <
>     VRB    - VARIABLE WIND DIRECTION                     <
>                                                          <
>>>>>>>>>>>>>>>>>>>>>>>>>>>> KEY <<<<<<<<<<<<<<<<<<<<<<<<<<<




USA.gov is the U.S. government's official web portal to all federal, state and local government web resources and services.